www.pogodaiklimat.ru

Погода и климат >> Архив погоды >> Французская Полинезия >> Atuona


ПОГОДА в Atuona

  • Прогноз погоды в Atuona
  • Монитор погоды в Atuona
  • Климат города

АРХИВ ПОГОДЫ в Atuona

Время (UTC), дата Ветер
(напр.,м/с)
 
Видим.   Явления Облачность Т
(С)
Тd
(С)
f
(%)
Тe
(С)
Тes
(С)
Комфортность P
(гПа)
Po
(гПа)
Тmin
(С)
Tmax
(С)
R
(мм)
R24
(мм)
S
(см)
01 10.12 ЮВ 1 5000 м осадки на расстоянии 9/9 300 м
[Cu Sc]
+26.1 1009.0 1003.0
02 10.12 С 1 н/о н/о +24.8 +21.3 81 +31 +31 очень
душно
1008.9 1002.9
03 10.12 С 1 н/о н/о +25.3 +22.0 82 +33 +33 очень
душно
1009.3 1003.3
05 10.12 З 3 н/о н/о +23.4 +21.5 89 +32 +32 очень
душно
1010.8 1004.7 0.8
04 10.12 С 1 н/о н/о +24.2 +21.7 86 +31 +31 очень
душно
1010.0 1003.9
06 10.12 СЗ 1 н/о н/о +23.2 +21.1 88 +31 +31 очень
душно
1011.2 1005.1 0.8
07 10.12 Ю 1 н/о н/о +23.3 +21.6 90 +31 +31 очень
душно
1011.8 1005.7 0.8
08 10.12 С 2 н/о н/о +23.1 +21.7 92 +31 +31 очень
душно
1011.6 1005.5 0.8
09 10.12 С 1 н/о н/о +23.0 +21.6 92 +31 +31 очень
душно
1011.0 1004.9 2
11 10.12 СВ 2 н/о н/о +23.0 +21.8 93 +31 +31 очень
душно
1010.0 1003.9
10 10.12 СЗ 1 н/о н/о +23.1 +21.9 93 +31 +31 очень
душно
1010.7 1004.6
12 10.12 СЗ 1 н/о н/о +22.9 +21.5 92 +31 +31 очень
душно
1010.0 1003.9 +32.2 +32.2 2
13 10.12 С 1 н/о н/о +23.0 +21.4 91 +31 +31 очень
душно
1010.2 1004.1
14 10.12 С 1 н/о н/о +23.1 +21.0 88 +31 +31 очень
душно
1010.7 1004.6
15 10.12 С 1 50 км 8/8 600 м
[Cu Sc]
+22.9 1011.4 1005.5
17 10.12 С 1 н/о осадки на расстоянии 9/9 300 м
[Cu Sc]
+24.3 1012.9 1006.8
16 10.12 СВ 1 н/о 8/8 600 м
[Cu Sc]
+24.4 1012.2
18 10.12 СВ 1 н/о осадки на расстоянии 9/9 300 м
[Cu Sc]
+26.3 +22.4 79 +34 +36 очень
душно
1012.9 1006.9 0.2
19 10.12 З 2 50 км 9/9 300 м
[Cu Sc]
+26.5 1012.6
20 10.12 С 1 н/о в посл. час ливневой дождь 9/9 300 м
[Cu Sc]
+27.2 1012.2 1006.2
21 10.12 С 3 н/о {ливн. осадки, дождь} 9/9 300 м
[Cu Sc]
+27.2 1011.4 1005.4
23 10.12 С 2 50 км 6/6 600 м
[Cu Sc]
+29.6 1009.4
22 10.12 СВ 2 н/о 9/9 600 м
[Cu Sc]
+28.9 1010.4
00 11.12 СВ 1 н/о {ливн. осадки, дождь} 6/6 600 м
[Cu Sc]
+28.2 +20.7 64 +35 +41 очень
душно
1009.1 1003.1 3
01 11.12 СВ 2 н/о 6/6 600 м
[Cu Sc]
+28.9 1008.8
02 11.12 С 2 н/о н/о +27.4 +20.5 66 +34 +34 очень
душно
1008.9 1002.9
03 11.12 СВ 1 н/о н/о +26.8 +20.4 68 +33 +33 очень
душно
1009.6 1003.6
05 11.12 С 1 н/о н/о +25.0 +20.9 78 +31 +31 очень
душно
1011.0 1004.9
04 11.12 С 1 н/о н/о +25.7 +20.9 75 +32 +32 очень
душно
1010.3 1004.3
06 11.12 С 1 н/о н/о +24.9 +20.8 78 +31 +31 очень
душно
1011.3 1005.2
07 11.12 С 1 н/о н/о +24.7 +20.0 75 +30 +30 очень
душно
1011.2 1005.1
08 11.12 СВ 2 н/о н/о +24.1 +20.4 80 +30 +30 очень
душно
1011.1 1005.0
09 11.12 СВ 1 н/о н/о +24.1 +20.8 82 +30 +30 очень
душно
1010.4 1004.3
11 11.12 СВ 1 н/о н/о +24.0 +20.3 80 +30 +30 очень
душно
1009.3 1003.2
10 11.12 СВ 1 н/о н/о +23.9 +20.6 82 +30 +30 очень
душно
1009.8 1003.7
12 11.12 СВ 1 н/о н/о +23.8 +20.5 82 +30 +30 очень
душно
1009.3 1003.2 +30.6 +30.6
13 11.12 СВ 1 н/о н/о +24.0 +20.5 81 +30 +30 очень
душно
1009.4 1003.3
14 11.12 С 1 н/о н/о +24.2 +21.3 84 +31 +31 очень
душно
1010.2 1004.1 0.4
15 11.12 С 1 н/о 4/1 600 м
[Cu hum Ac lent Ci fib]
+23.3 +21.2 88 +31 +31 очень
душно
1011.1 1005.0
17 11.12 СВ 2 н/о н/о +28.8 +21.8 66 +37 +37 очень
душно
1012.0 1006.0
16 11.12 СВ 1 н/о н/о +24.6 +22.1 86 +32 +32 очень
душно
1011.9 1005.8 0.2
18 11.12 СВ 2 н/о {ливн. осадки, дождь} 4/1 600 м
[Cu hum Ci fib]
+29.6 +20.7 59 +37 +45 очень
душно
1012.1 1006.1 0.6
19 11.12 СВ 3 н/о н/о +30.2 +20.4 56 +37 +37 очень
душно
1012.0 1006.0
20 11.12 СВ 3 н/о 4/1 600 м
[Cu hum Ci fib]
+30.7 +20.6 55 +38 +52 опасность
солнечного
удара
1011.2 1005.3
21 11.12 С 3 н/о н/о +29.3 +19.0 54 +35 +35 очень
душно
1010.8 1004.8
23 11.12 СВ 3 н/о 4/3 600 м
[Cu hum Ci fib]
+30.7 +19.7 52 +37 +47 очень
душно
1009.5 1003.6
22 11.12 СВ 3 н/о н/о +30.4 +18.8 50 +36 +36 очень
душно
1010.1 1004.1
00 12.12 СВ 2 н/о н/о +30.3 +19.3 52 +36 +36 очень
душно
1009.1 1003.2 +23.2
01 12.12 СВ 3 н/о н/о +29.4 +19.4 55 +35 +35 очень
душно
1009.2 1003.2
02 12.12 СВ 3 н/о н/о +28.1 +19.9 61 +34 +34 очень
душно
1009.6 1003.6
03 12.12 С 2 н/о н/о +27.1 +20.0 65 +33 +33 очень
душно
1010.2 1004.2
05 12.12 СВ 1 н/о н/о +25.9 +20.5 72 +32 +32 очень
душно
1011.7 1005.7
04 12.12 СВ 2 н/о н/о +26.3 +20.4 70 +33 +33 очень
душно
1010.8 1004.8
06 12.12 СВ 1 н/о н/о +25.2 +20.9 77 +32 +32 очень
душно
1012.3 1006.2
07 12.12 СВ 1 н/о н/о +24.5 +21.0 81 +31 +31 очень
душно
1012.5 1006.4
08 12.12 С 1 н/о н/о +24.4 +20.7 80 +30 +30 очень
душно
1012.4 1006.3
09 12.12 С 1 н/о н/о +24.2 +20.9 82 +30 +30 очень
душно
1011.8 1005.7
11 12.12 СВ 1 н/о н/о +23.4 +20.9 86 +31 +31 очень
душно
1010.7 1004.6
10 12.12 С 1 н/о н/о +24.2 +20.9 82 +30 +30 очень
душно
1011.3 1005.2
12 12.12 С 1 н/о н/о +23.4 +20.7 85 +31 +31 очень
душно
1010.4 1004.3 +31.2 +31.2
13 12.12 СВ 1 н/о н/о +23.3 +20.4 84 +31 +31 очень
душно
1010.7 1004.6
14 12.12 штиль 0 н/о н/о +23.3 +20.6 85 +31 +31 очень
душно
1011.1 1005.0
15 12.12 ЮЗ 1 н/о н/о +23.2 +20.2 83 +30 +30 очень
душно
1011.5 1005.4
17 12.12 СВ 1 н/о н/о +29.7 +21.6 62 +38 +38 очень
душно
1011.9 1005.9
16 12.12 СВ 1 н/о н/о +26.9 +21.9 74 +35 +35 очень
душно
1011.7 1005.7
18 12.12 СВ 1 н/о н/о +29.2 +20.4 59 +36 +36 очень
душно
1011.8 1005.8
19 12.12 СВ 2 н/о 5/3 600 м
[Cu hum Ci fib]
+29.9 +20.2 56 +36 +47 очень
душно
1011.5 1005.5
20 12.12 СВ 2 н/о 5/3 600 м
[Cu hum Ci fib]
+29.9 +20.2 56 +36 +50 очень
душно
1011.5 1005.5
21 12.12 СВ 2 н/о 5/3 600 м
[Cu hum Ci fib]
+29.5 +20.4 58 +36 +51 опасность
солнечного
удара
1010.3 1004.3
23 12.12 С 1 н/о н/о +30.8 +20.1 53 +37 +37 очень
душно
1008.7 1002.8
22 12.12 С 3 н/о н/о +28.7 +19.6 58 +35 +35 очень
душно
1009.6 1003.6
00 13.12 С 2 н/о 4/1 600 м
[Cu hum Ci fib]
+30.7 +20.0 53 +37 +48 очень
душно
1008.1 1002.2 +23.1
01 13.12 СВ 3 н/о н/о +29.4 +20.3 58 +36 +36 очень
душно
1008.2 1002.2
02 13.12 С 2 н/о н/о +28.1 +20.1 62 +34 +34 очень
душно
1008.5 1002.5
03 13.12 С 1 н/о н/о +27.1 +20.2 66 +33 +33 очень
душно
1009.1 1003.1
05 13.12 СВ 1 н/о н/о +25.4 +20.9 76 +32 +32 очень
душно
1010.7 1004.7
04 13.12 С 1 н/о н/о +26.2 +20.3 70 +32 +32 очень
душно
1010.0 1004.0
06 13.12 СВ 1 н/о н/о +25.1 +21.2 79 +32 +32 очень
душно
1011.3 1005.2
07 13.12 СВ 1 н/о н/о +24.4 +21.1 82 +31 +31 очень
душно
1011.5 1005.4
08 13.12 С 1 н/о н/о +24.2 +20.9 82 +30 +30 очень
душно
1011.4 1005.3
09 13.12 В 1 н/о н/о +24.6 +20.9 80 +31 +31 очень
душно
1010.8 1004.7
11 13.12 С 1 н/о н/о +23.5 +20.2 82 +29 +29 душно 1009.8 1003.7
10 13.12 СВ 1 н/о н/о +24.4 +20.9 81 +31 +31 очень
душно
1010.1 1004.0
12 13.12 СВ 1 н/о н/о +23.4 +20.5 84 +31 +31 очень
душно
1009.7 1003.6 +31.9 +31.9
13 13.12 СВ 1 н/о н/о +23.7 +20.6 83 +30 +30 очень
душно
1009.6 1003.5
14 13.12 СВ 1 н/о н/о +23.9 +20.4 81 +30 +30 очень
душно
1009.9 1003.8
15 13.12 СВ 2 н/о 4/4 600 м
[Cu med, cong]
+23.3 1010.7
17 13.12 СВ 1 н/о 3/3 600 м
[Cu med, cong]
+29.3 1011.3
16 13.12 СВ 1 н/о 4/4 600 м
[Cu med, cong]
+25.0 1011.3
18 13.12 С 2 60 км 3/3 600 м
[Cu hum]
+30.0 1011.5 1005.5
19 13.12 С 2 60 км 3/3 600 м
[Cu hum]
+30.8 1011.2
20 13.12 С 2 60 км 3/3 600 м
[Cu med, cong]
+30.4 1011.0
21 13.12 С 3 н/о 3/3 600 м
[Cu med, cong]
+31.2 1010.1
23 13.12 СВ 2 60 км 4/4 600 м
[Cu med, cong]
+30.0 1009.0
22 13.12 СВ 3 н/о 6/6 600 м
[Cu med, cong]
+30.0 1009.5
00 14.12 С 2 60 км 4/4 600 м
[Cu med, cong]
+28.2 1008.2 1002.2
01 14.12 СВ 1 н/о в посл. час ливневой дождь 4/4 600 м
[Cu Sc]
+27.5 1008.0 1002.0
02 14.12 СВ 2 н/о н/о +27.3 +20.1 65 +34 +34 очень
душно
1008.2 1002.2
03 14.12 С 1 н/о н/о +26.6 +20.4 69 +33 +33 очень
душно
1008.8 1002.8 0.6
05 14.12 СВ 2 н/о н/о +24.7 +21.6 83 +32 +32 очень
душно
1009.6 1003.5
04 14.12 СВ 2 н/о н/о +25.2 +21.3 79 +32 +32 очень
душно
1009.0 1003.0
06 14.12 С 1 н/о н/о +24.1 +21.6 86 +31 +31 очень
душно
1010.3 1004.2
07 14.12 С 1 н/о н/о +23.8 +21.3 86 +30 +30 очень
душно
1010.7 1004.6
08 14.12 штиль 0 н/о н/о +23.3 +21.0 87 +31 +31 очень
душно
1010.6 1004.5
09 14.12 С 1 н/о н/о +23.0 +20.9 88 +30 +30 очень
душно
1010.3 1004.2
11 14.12 штиль 0 н/о н/о +23.2 +21.1 88 +31 +31 очень
душно
1008.5 1002.4
10 14.12 С 1 н/о н/о +23.1 +20.8 87 +31 +31 очень
душно
1009.2 1003.1
12 14.12 С 1 н/о н/о +22.9 +20.8 88 +30 +30 очень
душно
1008.4 1002.3 +31.7 +31.7
13 14.12 С 1 н/о н/о +22.9 +20.4 86 +30 +30 очень
душно
1008.5 1002.4
14 14.12 СЗ 1 н/о н/о +22.7 +20.2 86 +29 +29 очень
душно
1008.9 1002.8
15 14.12 СВ 1 н/о 4/4 600 м
[Cu med, cong]
+22.9 1009.6
17 14.12 Ю 1 н/о 3/3 600 м
[Cu med, cong]
+29.0 1010.8
16 14.12 СВ 1 н/о 3/3 600 м
[Cu med, cong]
+25.7 1010.2
18 14.12 В 3 н/о 3/3 600 м
[Cu med, cong]
+29.3 1011.1 1005.1
19 14.12 В 3 60 км 5/5 600 м
[Cu med, cong]
+28.9 1010.7
20 14.12 В 2 н/о 4/4 600 м
[Cu med, cong Ac lent]
+29.2 1010.3
21 14.12 В 4 60 км 3/3 600 м
[Cu med, cong Ci fib]
+28.5 1009.8
23 14.12 С 1 н/о 3/3 600 м
[Cu med, cong Ci fib]
+29.6 1008.2
22 14.12 В 3 н/о 3/3 600 м
[Cu med, cong Ci fib]
+29.1 1009.0
00 15.12 С 2 60 км 3/3 600 м
[Cu med, cong Ci fib]
+29.0 1007.4 1001.4 0.6
01 15.12 СВ 2 н/о 3/3 600 м
[Cu med, cong Ci fib]
+28.9 1007.1
02 15.12 С 2 н/о н/о +28.3 +19.0 57 +34 +34 очень
душно
1007.3 1001.3
03 15.12 СВ 2 н/о н/о +27.0 +19.4 63 +33 +33 очень
душно
1008.0 1002.0
05 15.12 штиль 0 н/о н/о +24.1 +21.6 86 +31 +31 очень
душно
1009.9 1003.8
04 15.12 СВ 1 н/о н/о +24.4 +21.3 83 +31 +31 очень
душно
1009.2 1003.1 1
06 15.12 СЗ 1 н/о н/о +23.4 +20.9 86 +31 +31 очень
душно
1010.2 1004.1 1
07 15.12 С 1 н/о н/о +23.7 +20.8 84 +30 +30 очень
душно
1010.5 1004.4
08 15.12 СВ 1 н/о н/о +23.3 +20.8 86 +31 +31 очень
душно
1010.2 1004.1
09 15.12 штиль 0 н/о н/о +23.3 +20.6 85 +31 +31 очень
душно
1009.4 1003.3
11 15.12 СЗ 2 н/о н/о +23.2 +21.5 90 +31 +31 очень
душно
1007.8 1001.7 0.4
10 15.12 СЗ 1 н/о н/о +23.2 +20.7 86 +31 +31 очень
душно
1008.5 1002.4
12 15.12 С 1 н/о н/о +23.1 +21.9 93 +31 +31 очень
душно
1007.9 1001.8 +31.3 +31.3 0.8
13 15.12 С 1 н/о н/о +22.7 +21.5 93 +30 +30 очень
душно
1007.6 1001.5 0.6
14 15.12 С 1 н/о н/о +23.0 +21.3 90 +31 +31 очень
душно
1007.5 1001.4
15 15.12 В 1 н/о н/о +23.6 +21.3 87 +30 +30 очень
душно
1008.3 1002.2 0.6
17 15.12 СЗ 2 н/о н/о +23.5 +22.5 94 +31 +31 очень
душно
1010.0 1003.9 1
16 15.12 СЗ 1 н/о н/о +23.5 +22.3 93 +31 +31 очень
душно
1009.6 1003.5 2
18 15.12 С 1 н/о 9/9 100 м
[Cu Sc]
+24.0 +22.4 91 +31 +32 очень
душно
1010.0 1003.9 4
19 15.12 СВ 2 н/о 9/9 600 м
[Cu Sc]
+28.4 +22.2 69 +37 +39 очень
душно
1009.8 1003.8
20 15.12 СВ 3 н/о 8/4 600 м
[Cu Sc Ci fib]
+29.5 +19.5 55 +35 +44 очень
душно
1009.5 1003.5
21 15.12 С 3 н/о 8/3 600 м
[Cu Sc Ci fib]
+29.9 +19.9 55 +36 +47 очень
душно
1009.0 1003.0
23 15.12 С 3 н/о 6/4 600 м
[Cu med, cong Ci fib]
+30.3 +19.7 53 +36 +45 очень
душно
1008.1 1002.2
22 15.12 С 2 н/о н/о +30.1 +19.5 53 +36 +36 очень
душно
1008.5 1002.6
00 16.12 С 2 н/о 6/3 600 м
[Cu med, cong Ci sp]
+30.3 +19.7 53 +36 +44 очень
душно
1007.5 1001.6 +22.6 6
01 16.12 С 2 н/о н/о +29.2 +19.5 56 +35 +35 очень
душно
1007.1 1001.1
02 16.12 С 2 н/о н/о +27.7 +20.0 63 +34 +34 очень
душно
1007.5 1001.5
03 16.12 С 2 н/о н/о +27.3 +20.1 65 +34 +34 очень
душно
1008.1 1002.1
05 16.12 З 1 н/о н/о +25.8 +20.8 74 +32 +32 очень
душно
1009.6 1003.6
04 16.12 СВ 1 н/о н/о +26.1 +20.9 73 +33 +33 очень
душно
1008.9 1002.9
06 16.12 С 1 н/о н/о +25.7 +20.0 71 +32 +32 очень
душно
1010.2 1004.2
07 16.12 С 1 н/о н/о +25.4 +20.4 74 +31 +31 очень
душно
1010.6 1004.6
08 16.12 С 1 н/о н/о +25.0 +20.5 76 +31 +31 очень
душно
1010.9 1004.8
09 16.12 С 1 н/о н/о +24.3 +20.4 79 +30 +30 очень
душно
1010.6 1004.5
11 16.12 штиль 0 н/о н/о +23.3 +20.4 84 +31 +31 очень
душно
1009.3 1003.2
10 16.12 СЗ 1 н/о н/о +23.5 +20.2 82 +29 +29 душно 1009.7 1003.6
12 16.12 С 1 н/о н/о +23.2 +20.3 84 +30 +30 очень
душно
1009.1 1003.0 +31.0 +31.0
13 16.12 СЗ 1 н/о н/о +23.2 +20.0 82 +30 +30 очень
душно
1008.8 1002.7
14 16.12 С 1 н/о н/о +23.5 +19.4 78 +29 +29 душно 1008.8 1002.7
15 16.12 С 1 н/о 4/1 600 м
[Cu hum Ci fib]
+23.8 +19.7 78 +29 +29 душно 1009.6 1003.5
17 16.12 СВ 1 н/о 3/1 600 м
[Cu hum Ci fib]
+29.1 +20.8 61 +36 +41 очень
душно
1010.8 1004.8
16 16.12 С 1 н/о 3/1 600 м
[Cu hum Ci fib]
+26.1 +20.4 71 +32 +34 очень
душно
1010.4 1004.4
18 16.12 В 2 н/о н/о +30.0 +20.6 57 +37 +37 очень
душно
1010.8 1004.8
19 16.12 С 3 н/о н/о +29.9 +19.9 55 +36 +36 очень
душно
1010.7 1004.7
20 16.12 С 2 н/о 4/3 600 м
[Cu hum Ci fib]
+29.8 +19.5 54 +36 +48 очень
душно
1010.1 1004.1
21 16.12 С 3 н/о 4/3 600 м
[Cu hum Ci fib]
+30.4 +20.0 54 +37 +50 очень
душно
1009.3 1003.4
23 16.12 С 3 50 км 6/4 600 м
[Cu hum Ci fib]
+30.1 +19.8 54 +36 +45 очень
душно
1008.0 1002.1
22 16.12 СВ 2 н/о н/о +30.6 +20.2 54 +37 +37 очень
душно
1008.6 1002.7

 

Местоположение метеостанции Atuona (Французская Полинезия): широта -9.80 долгота -139.00 высота над уровнем моря 53 м.

В архиве по умолчанию представлена погода в Atuona за последнюю неделю. Архивные данные за месяц целиком и за предыдущие месяцы, начиная с января 2011 года, Вы можете получить, выбрав интересующий диапазон дат из раскрывающегося списка и нажав кнопку "Ввод!".

Внимание! Время в таблицах - всемирное. Для получения местного времени необходимо прибавить поправку, которая в Atuona равна -10 ч.

Смотрите также архив погоды в соседних городах и на ближайших метеорологических станциях:

Погода в Takaroa (Французская Полинезия) (834 км)
Погода в Hao (Французская Полинезия) (941 км)
Погода в Hereheretue (Французская Полинезия) (1295 км)
Погода в Tautira (Французская Полинезия) (1409 км)
Погода в Tahiti-Faaa (Французская Полинезия) (1433 км)
Погода в Rikitea (Французская Полинезия) (1545 км)
Погода в Bora-Bora Airport (Французская Полинезия) (1560 км)
Погода в Tubuai (Французская Полинезия) (1869 км)
Погода в Pitcairn Island (Питкерн) (1942 км)
Погода в Rapa (Французская Полинезия) (2057 км)

Пояснения к столбцам:

Ветер - указаны скорость ветра в м/с - средняя за 10 мин, порывы в срок и между сроками (в фигурных скобках) и направление, откуда дует ветер: С - северный, СВ - северо-восточный, В - восточный, ЮВ - юго-восточный, Ю - южный, ЮЗ - юго-западный, З - западный, СЗ - северо-западный.
Видимость - горизонтальная дальность видимости в метрах или километрах. При видимости от 1 до 10 км при отсутствии осадков обычно наблюдается дымка, при ухудшении видимости до 1 км и менее - туман. В сухую погоду видимость может ухудшаться дымом, пылью или мглою.
Явления - указаны атмосферные явления, наблюдавшиеся в срок или в последний час перед сроком; фигурными скобками обозначены явления, наблюдавшиеся между сроками (за 1-3 часа до срока); квадратными скобками обозначены град или гололедные отложения с указанием их диаметра в мм.
Облачность - указаны через наклонную черту общая и нижняя облачность в баллах и высота нижней границы облаков в метрах; квадратными скобками обозначены формы облаков: Ci - перистые, Cs - перисто-слоистые, Cc - перисто-кучевые, Ac - высококучевые, As - высокослоистые, Sc - слоисто-кучевые, Ns - слоисто-дождевые, Cu - кучевые, Cb - кучево-дождевые. Подробнее классификацию облаков см. в Атласе облаков (PDF).
T - Температура воздуха - температура, измеренная на высоте 2 м над землей.
Td - Температура точки росы - температура, при понижении до которой содержащийся в воздухе водяной пар достигнет насыщения.
f - Относительная влажность воздуха - влажноcть воздуха, измеренная на высоте 2 м над землей.
Te - Эффективная температура - температура, которую ощущает одетый по сезону человек в тени. Характеристика душности погоды. При расчете учитывается влияние влажности воздуха и скорости ветра на теплоощущения человека.
Tes - Эффективная температура на солнце - температура, которую ощущает человек, с поправкой на солнечный нагрев. Характеристика знойности погоды. Зависит от высоты солнца над горизонтом, облачности и скорости ветра. Ночью, в пасмурную погоду, а также при ветре 12 м/с и более поправка равна нулю.
P - Атмосферное давление - приведенное к уровню моря атмосферное давление.
Po - Атмосферное давление - измеренное на уровне метеостанции атмосферное давление.
Tmin - Минимальная температура - минимум температуры воздуха на высоте 2 м над землей.
Tmax - Максимальная температура - максимум температуры воздуха на высоте 2 м над землей.
R - Количество осадков - Количество выпавших осадков за период времени, мм. При наведении курсора мыши на число - период времени, за который выпало указанное количество осадков.
R24 - Количество осадков - Количество выпавших осадков за 24 часа, мм.
S - Снежный покров - Высота снежного покрова, см. При наведении курсора мыши на число - состояние снежного покрова и степень покрытия местности в баллах.